| time (UTC) | temp F | wind direction | speed knots | gust knots | rain 1hr in | rain 24hr in | rain mn in | humidity % | barometer mb |
| 20260901134041 | 71 | 0.0 | 0.9 | 0.00 | 0.20 | 0.15 | 91 | 1011.7 | |
| 20260901133021 | 71 | 0.0 | 0.9 | 0.00 | 0.20 | 0.15 | 92 | 1011.8 | |
| 20260901132020 | 71 | 68 | 1.7 | 4.3 | 0.00 | 0.20 | 0.15 | 91 | 1011.8 |
| 20260901131020 | 71 | 0.0 | 0.9 | 0.00 | 0.20 | 0.15 | 92 | 1011.8 | |
| 20260901130021 | 71 | 0.0 | 0.9 | 0.00 | 0.20 | 0.15 | 93 | 1012.0 | |
| 20260901125020 | 70 | 0.0 | 0.0 | 0.00 | 0.20 | 0.15 | 94 | 1011.9 | |
| 20260901124020 | 69 | 0.0 | 0.9 | 0.00 | 0.20 | 0.15 | 93 | 1011.9 | |
| 20260901123020 | 69 | 0.0 | 0.0 | 0.00 | 0.20 | 0.15 | 94 | 1012.2 | |
| 20260901122020 | 68 | 0.0 | 0.0 | 0.00 | 0.20 | 0.15 | 93 | 1012.1 | |
| 20260901121020 | 68 | 0.0 | 0.9 | 0.00 | 0.20 | 0.15 | 93 | 1012.4 | |
| 20260901120020 | 68 | 0.0 | 1.7 | 0.00 | 0.20 | 0.15 | 93 | 1012.4 | |
| 20260901115020 | 68 | 0.0 | 1.7 | 0.00 | 0.20 | 0.15 | 93 | 1012.4 | |
| 20260901114020 | 68 | 68 | 0.9 | 2.6 | 0.00 | 0.20 | 0.15 | 93 | 1012.3 |
| 20260901113023 | 68 | 68 | 0.9 | 2.6 | 0.00 | 0.20 | 0.15 | 93 | 1012.4 |
| 20260901112020 | 68 | 0.0 | 1.7 | 0.00 | 0.20 | 0.15 | 93 | 1012.5 | |
| 20260901111040 | 68 | 0.0 | 0.0 | 0.00 | 0.20 | 0.15 | 93 | 1012.4 | |
| 20260901110103 | 68 | 0.0 | 1.7 | 0.00 | 0.20 | 0.15 | 93 | 1012.3 | |
| 20260901105021 | 68 | 68 | 0.9 | 1.7 | 0.00 | 0.20 | 0.15 | 93 | 1012.3 |
| 20260901104020 | 69 | 0.0 | 2.6 | 0.01 | 0.20 | 0.15 | 93 | 1012.2 | |
| 20260901103024 | 69 | 0.0 | 0.0 | 0.06 | 0.20 | 0.15 | 93 | 1012.2 | |
| 20260901102020 | 69 | 0.0 | 0.9 | 0.08 | 0.20 | 0.15 | 93 | 1012.0 | |
| 20260901101020 | 69 | 0.0 | 0.9 | 0.08 | 0.20 | 0.15 | 93 | 1012.1 | |
| 20260901100020 | 69 | 0.0 | 0.9 | 0.08 | 0.20 | 0.15 | 93 | 1012.1 | |
| 20260901095020 | 69 | 0.0 | 1.7 | 0.08 | 0.20 | 0.15 | 93 | 1012.5 | |
| 20260901094020 | 69 | 0.0 | 0.9 | 0.07 | 0.19 | 0.14 | 93 | 1012.7 | |
| 20260901093022 | 69 | 248 | 0.9 | 1.7 | 0.02 | 0.14 | 0.09 | 94 | 1012.8 |
| 20260901092020 | 69 | 0.0 | 0.9 | 0.00 | 0.12 | 0.07 | 93 | 1012.3 | |
| 20260901091023 | 69 | 135 | 0.9 | 0.9 | 0.00 | 0.12 | 0.07 | 93 | 1012.2 |
| 20260901090021 | 69 | 158 | 0.9 | 1.7 | 0.00 | 0.12 | 0.07 | 93 | 1012.0 |
| 20260901085022 | 69 | 180 | 1.7 | 2.6 | 0.00 | 0.12 | 0.07 | 93 | 1012.0 |
| 20260901084021 | 69 | 158 | 1.7 | 2.6 | 0.00 | 0.12 | 0.07 | 93 | 1012.1 |
| 20260901083042 | 68 | 158 | 0.9 | 2.6 | 0.00 | 0.12 | 0.07 | 93 | 1012.2 |
| 20260901082041 | 68 | 158 | 2.6 | 3.5 | 0.00 | 0.12 | 0.07 | 93 | 1012.3 |
| 20260901081021 | 68 | 0.0 | 0.9 | 0.01 | 0.12 | 0.07 | 93 | 1012.6 | |
| 20260901080021 | 68 | 0.0 | 1.7 | 0.05 | 0.12 | 0.07 | 93 | 1012.5 | |
| 20260901075021 | 68 | 0.0 | 1.7 | 0.06 | 0.12 | 0.07 | 93 | 1012.6 | |
| 20260901074041 | 68 | 0.0 | 0.0 | 0.06 | 0.12 | 0.07 | 93 | 1012.8 | |
| 20260901073021 | 68 | 0.0 | 0.0 | 0.06 | 0.12 | 0.07 | 93 | 1012.9 | |
| 20260901072021 | 68 | 0.0 | 0.0 | 0.06 | 0.12 | 0.07 | 93 | 1013.0 | |
| 20260901071041 | 68 | 0.0 | 0.0 | 0.05 | 0.11 | 0.06 | 93 | 1013.0 | |
| 20260901070021 | 68 | 0.0 | 0.0 | 0.01 | 0.07 | 0.02 | 93 | 1013.1 | |
| 20260901065041 | 68 | 0.0 | 0.0 | 0.00 | 0.06 | 0.01 | 93 | 1013.2 | |
| 20260901064021 | 68 | 0.0 | 0.0 | 0.00 | 0.06 | 0.01 | 93 | 1013.3 | |
| 20260901063041 | 68 | 0.0 | 0.0 | 0.00 | 0.06 | 0.01 | 93 | 1013.3 | |
| 20260901062021 | 68 | 0.0 | 0.9 | 0.00 | 0.06 | 0.01 | 93 | 1013.4 | |
| 20260901061021 | 68 | 0.0 | 0.9 | 0.00 | 0.06 | 0.01 | 93 | 1013.4 | |
| 20260901055021 | 68 | 0.0 | 0.0 | 0.00 | 0.06 | 0.01 | 93 | 1013.6 | |
| 20260901054021 | 68 | 0.0 | 0.0 | 0.00 | 0.06 | 0.01 | 93 | 1013.7 | |
| 20260901053021 | 68 | 0.0 | 0.0 | 0.00 | 0.06 | 0.01 | 93 | 1014.0 | |
| 20260901052021 | 69 | 0.0 | 0.0 | 0.00 | 0.06 | 0.01 | 93 | 1014.0 | |
| 20260901051021 | 68 | 0.0 | 0.0 | 0.00 | 0.06 | 0.01 | 92 | 1013.9 | |
| 20260901050021 | 68 | 0.0 | 0.0 | 0.01 | 0.06 | 0.01 | 92 | 1013.9 | |
| 20260901045021 | 68 | 0.0 | 0.0 | 0.01 | 0.06 | 0.01 | 92 | 1013.8 | |
| 20260901044020 | 68 | 0.0 | 0.0 | 0.01 | 0.06 | 0.01 | 92 | 1014.1 | |
| 20260901043021 | 68 | 0.0 | 0.0 | 0.01 | 0.06 | 0.01 | 92 | 1014.3 | |
| 20260901042020 | 68 | 0.0 | 0.0 | 0.01 | 0.06 | 0.01 | 92 | 1014.3 | |
| 20260901041021 | 68 | 0.0 | 0.0 | 0.01 | 0.06 | 0.01 | 92 | 1014.4 | |
| 20260901040021 | 68 | 0.0 | 0.0 | 0.00 | 0.05 | 0.05 | 92 | 1014.3 | |
| 20260901035021 | 68 | 0.0 | 0.0 | 0.00 | 0.05 | 0.05 | 92 | 1014.3 | |
| 20260901034020 | 68 | 0.0 | 0.0 | 0.00 | 0.05 | 0.05 | 92 | 1014.2 | |
| 20260901033020 | 68 | 0.0 | 0.0 | 0.00 | 0.05 | 0.05 | 92 | 1014.2 | |
| 20260901032021 | 68 | 0.0 | 0.9 | 0.00 | 0.05 | 0.05 | 92 | 1014.4 | |
| 20260901031021 | 68 | 0.0 | 0.0 | 0.00 | 0.05 | 0.05 | 92 | 1014.5 | |
| 20260901030020 | 68 | 0.0 | 0.9 | 0.00 | 0.05 | 0.05 | 92 | 1014.4 | |
| 20260901025020 | 68 | 0.0 | 0.0 | 0.00 | 0.05 | 0.05 | 92 | 1014.4 | |
| 20260901024040 | 68 | 0.0 | 0.0 | 0.00 | 0.05 | 0.05 | 92 | 1014.5 | |
| 20260901023021 | 68 | 135 | 0.9 | 1.7 | 0.00 | 0.05 | 0.05 | 91 | 1014.5 |
| 20260901022021 | 68 | 0.0 | 0.0 | 0.00 | 0.05 | 0.05 | 91 | 1014.6 | |
| 20260901021040 | 68 | 0.0 | 0.0 | 0.00 | 0.05 | 0.05 | 91 | 1014.6 | |
| 20260901020021 | 68 | 0.0 | 1.7 | 0.00 | 0.05 | 0.05 | 91 | 1014.8 | |
| 20260901015020 | 68 | 0.0 | 0.0 | 0.00 | 0.05 | 0.05 | 91 | 1014.9 | |
| 20260901014040 | 68 | 0.0 | 0.0 | 0.00 | 0.05 | 0.05 | 91 | 1014.9 | |
| 20260901013020 | 68 | 0.0 | 0.0 | 0.00 | 0.05 | 0.05 | 91 | 1014.9 | |
| 20260901012020 | 69 | 0.0 | 0.0 | 0.00 | 0.05 | 0.05 | 91 | 1015.0 | |
| 20260901011020 | 69 | 0.0 | 0.0 | 0.00 | 0.05 | 0.05 | 90 | 1014.9 | |
| 20260901010020 | 69 | 0.0 | 0.9 | 0.00 | 0.05 | 0.05 | 90 | 1014.8 | |
| 20260901005020 | 69 | 0.0 | 0.0 | 0.00 | 0.05 | 0.05 | 90 | 1014.8 | |
| 20260901004020 | 69 | 0.0 | 0.0 | 0.00 | 0.05 | 0.05 | 90 | 1014.8 | |
| 20260901003020 | 69 | 0.0 | 0.0 | 0.00 | 0.05 | 0.05 | 89 | 1014.7 | |
| 20260901002022 | 69 | 0.0 | 0.0 | 0.00 | 0.05 | 0.05 | 89 | 1014.6 | |
| 20260901001020 | 69 | 0.0 | 0.0 | 0.01 | 0.05 | 0.05 | 89 | 1014.5 | |
| 20260901000020 | 69 | 0.0 | 0.0 | 0.02 | 0.05 | 0.05 | 89 | 1014.6 | |
| 20260831235023 | 69 | 158 | 0.9 | 1.7 | 0.02 | 0.05 | 0.05 | 89 | 1014.5 |
| 20260831234020 | 69 | 158 | 0.9 | 1.7 | 0.02 | 0.05 | 0.05 | 89 | 1014.6 |
| 20260831233040 | 69 | 0.0 | 0.0 | 0.02 | 0.05 | 0.05 | 88 | 1014.7 | |
| 20260831232020 | 69 | 0.0 | 0.0 | 0.02 | 0.05 | 0.05 | 88 | 1014.8 | |
| 20260831231041 | 69 | 0.0 | 0.9 | 0.01 | 0.04 | 0.04 | 88 | 1014.7 | |
| 20260831230020 | 70 | 135 | 0.9 | 1.7 | 0.00 | 0.03 | 0.03 | 87 | 1014.8 |
| 20260831225040 | 70 | 0.0 | 0.9 | 0.00 | 0.03 | 0.03 | 87 | 1014.8 | |
| 20260831224100 | 70 | 0.0 | 0.9 | 0.00 | 0.03 | 0.03 | 87 | 1014.9 | |
| 20260831223022 | 70 | 180 | 2.6 | 4.3 | 0.00 | 0.03 | 0.03 | 86 | 1014.9 |
| 20260831222042 | 71 | 180 | 1.7 | 4.3 | 0.00 | 0.03 | 0.03 | 85 | 1014.9 |
| 20260831221043 | 71 | 158 | 1.7 | 3.5 | 0.00 | 0.03 | 0.03 | 85 | 1014.9 |
| 20260831220041 | 70 | 158 | 1.7 | 4.3 | 0.00 | 0.03 | 0.03 | 85 | 1015.0 |
| 20260831215022 | 70 | 135 | 0.9 | 2.6 | 0.00 | 0.03 | 0.03 | 85 | 1015.0 |
| 20260831214021 | 70 | 158 | 0.9 | 2.6 | 0.00 | 0.03 | 0.03 | 85 | 1015.2 |
| 20260831213021 | 70 | 158 | 0.9 | 3.5 | 0.00 | 0.03 | 0.03 | 85 | 1015.4 |
| 20260831212021 | 70 | 180 | 2.6 | 4.3 | 0.00 | 0.03 | 0.03 | 84 | 1015.5 |
| 20260831211021 | 70 | 158 | 3.5 | 6.1 | 0.00 | 0.03 | 0.03 | 84 | 1015.5 |
| 20260831210021 | 70 | 158 | 2.6 | 3.5 | 0.00 | 0.03 | 0.03 | 84 | 1015.6 |
| 20260831205021 | 70 | 158 | 1.7 | 2.6 | 0.00 | 0.03 | 0.03 | 84 | 1015.8 |
| 20260831204021 | 70 | 158 | 1.7 | 4.3 | 0.00 | 0.03 | 0.03 | 84 | 1015.9 |
| 20260831203021 | 70 | 158 | 3.5 | 6.1 | 0.00 | 0.03 | 0.03 | 83 | 1015.9 |
| 20260831202021 | 70 | 180 | 1.7 | 5.2 | 0.00 | 0.03 | 0.03 | 83 | 1015.9 |
| 20260831201021 | 70 | 135 | 0.9 | 2.6 | 0.00 | 0.03 | 0.03 | 83 | 1015.8 |
| 20260831200021 | 70 | 0.0 | 1.7 | 0.00 | 0.03 | 0.03 | 83 | 1015.8 | |
| 20260831195023 | 70 | 158 | 0.9 | 1.7 | 0.00 | 0.03 | 0.03 | 83 | 1015.7 |
| 20260831194021 | 70 | 135 | 0.9 | 1.7 | 0.00 | 0.03 | 0.03 | 83 | 1015.9 |
| 20260831193021 | 70 | 0.0 | 0.9 | 0.00 | 0.03 | 0.03 | 83 | 1016.2 | |
| 20260831192021 | 70 | 158 | 0.9 | 1.7 | 0.00 | 0.03 | 0.03 | 83 | 1016.2 |
| 20260831191021 | 70 | 0.0 | 2.6 | 0.00 | 0.03 | 0.03 | 83 | 1016.3 | |
| 20260831190021 | 70 | 135 | 0.9 | 2.6 | 0.00 | 0.03 | 0.03 | 83 | 1016.4 |
| 20260831185021 | 70 | 158 | 1.7 | 3.5 | 0.00 | 0.03 | 0.03 | 83 | 1016.6 |
| 20260831184021 | 70 | 135 | 1.7 | 3.5 | 0.00 | 0.03 | 0.03 | 84 | 1016.4 |
| 20260831183021 | 70 | 158 | 0.9 | 3.5 | 0.00 | 0.03 | 0.03 | 84 | 1016.7 |
| 20260831182021 | 70 | 158 | 0.9 | 3.5 | 0.00 | 0.03 | 0.03 | 84 | 1016.7 |
| 20260831181020 | 69 | 158 | 1.7 | 4.3 | 0.01 | 0.03 | 0.03 | 85 | 1016.6 |
| 20260831180020 | 69 | 135 | 0.9 | 2.6 | 0.01 | 0.03 | 0.03 | 86 | 1016.9 |
| 20260831175021 | 69 | 135 | 0.9 | 2.6 | 0.01 | 0.03 | 0.03 | 86 | 1017.2 |
| 20260831174020 | 68 | 158 | 0.9 | 1.7 | 0.01 | 0.03 | 0.03 | 86 | 1017.3 |
| 20260831173020 | 68 | 158 | 0.9 | 3.5 | 0.01 | 0.03 | 0.03 | 85 | 1017.3 |
| 20260831172020 | 69 | 158 | 2.6 | 5.2 | 0.01 | 0.03 | 0.03 | 85 | 1017.3 |
| 20260831171021 | 69 | 180 | 1.7 | 4.3 | 0.00 | 0.02 | 0.02 | 85 | 1017.3 |
| 20260831170021 | 69 | 158 | 2.6 | 5.2 | 0.00 | 0.02 | 0.02 | 85 | 1017.5 |
| 20260831165021 | 69 | 158 | 2.6 | 4.3 | 0.00 | 0.02 | 0.02 | 85 | 1017.6 |
| 20260831164020 | 69 | 180 | 2.6 | 5.2 | 0.00 | 0.02 | 0.02 | 84 | 1017.8 |
| 20260831163040 | 69 | 158 | 2.6 | 4.3 | 0.01 | 0.02 | 0.02 | 84 | 1017.7 |
| 20260831162020 | 69 | 158 | 3.5 | 5.2 | 0.01 | 0.02 | 0.02 | 84 | 1017.8 |
| 20260831161020 | 69 | 158 | 1.7 | 5.2 | 0.01 | 0.02 | 0.02 | 84 | 1018.0 |
| 20260831160040 | 70 | 158 | 1.7 | 4.3 | 0.01 | 0.02 | 0.02 | 84 | 1017.8 |
| 20260831155021 | 69 | 180 | 3.5 | 6.1 | 0.02 | 0.02 | 0.02 | 85 | 1017.8 |
| 20260831154020 | 69 | 158 | 3.5 | 5.2 | 0.02 | 0.02 | 0.02 | 84 | 1017.9 |
| 20260831153020 | 69 | 158 | 4.3 | 7.8 | 0.01 | 0.01 | 0.01 | 84 | 1017.7 |
| 20260831152020 | 68 | 158 | 4.3 | 7.8 | 0.01 | 0.01 | 0.01 | 84 | 1018.0 |
| 20260831151028 | 69 | 158 | 2.6 | 4.3 | 0.01 | 0.01 | 0.01 | 84 | 1018.0 |
| 20260831150028 | 69 | 180 | 2.6 | 4.3 | 0.01 | 0.01 | 0.01 | 82 | 1018.2 |
| 20260831145020 | 69 | 180 | 2.6 | 6.1 | 0.00 | 0.00 | 0.00 | 82 | 1018.0 |
| 20260831144020 | 70 | 180 | 2.6 | 5.2 | 0.00 | 0.00 | 0.00 | 81 | 1017.9 |
| 20260831142020 | 70 | 135 | 1.7 | 5.2 | 0.00 | 0.00 | 0.00 | 78 | 1017.7 |
| 20260831141020 | 70 | 0.0 | 2.6 | 0.00 | 0.00 | 0.00 | 80 | 1017.7 | |
| 20260831140020 | 69 | 0.0 | 1.7 | 0.00 | 0.00 | 0.00 | 80 | 1017.7 | |
| 20260831135020 | 69 | 180 | 1.7 | 2.6 | 0.00 | 0.00 | 0.00 | 80 | 1017.7 |